| time (UTC) | temp F | wind direction | speed knots | gust knots | rain 1hr in | rain 24hr in | rain mn in | humidity % | barometer mb |
| 20260508034857 | 48 | 354 | 3.5 | 5.2 | 0.00 | 0.00 | 0.00 | 91 | 1001.1 |
| 20260508034357 | 48 | 343 | 4.3 | 6.1 | 0.00 | 0.00 | 0.00 | 92 | 1001.1 |
| 20260508033856 | 48 | 29 | 3.5 | 5.2 | 0.00 | 0.00 | 0.00 | 92 | 1001.1 |
| 20260508033356 | 48 | 28 | 4.3 | 6.1 | 0.00 | 0.00 | 0.00 | 92 | 1001.0 |
| 20260508032854 | 48 | 351 | 5.2 | 7.0 | 0.00 | 0.00 | 0.00 | 92 | 1001.0 |
| 20260508032354 | 48 | 2 | 3.5 | 5.2 | 0.00 | 0.00 | 0.00 | 92 | 1000.8 |
| 20260508031853 | 48 | 332 | 1.7 | 5.2 | 0.00 | 0.00 | 0.00 | 92 | 1001.0 |
| 20260508031353 | 48 | 35 | 1.7 | 6.1 | 0.00 | 0.00 | 0.00 | 92 | 1000.8 |
| 20260508030851 | 48 | 341 | 3.5 | 5.2 | 0.00 | 0.00 | 0.00 | 92 | 1000.8 |
| 20260508030351 | 48 | 40 | 2.6 | 5.2 | 0.00 | 0.00 | 0.00 | 92 | 1000.8 |
| 20260508025850 | 48 | 353 | 6.1 | 6.1 | 0.00 | 0.00 | 0.00 | 92 | 1000.7 |
| 20260508025350 | 48 | 47 | 1.7 | 5.2 | 0.00 | 0.00 | 0.00 | 92 | 1000.7 |
| 20260508024850 | 48 | 14 | 3.5 | 6.1 | 0.00 | 0.00 | 0.00 | 92 | 1000.7 |
| 20260508024349 | 48 | 0 | 1.7 | 4.3 | 0.00 | 0.00 | 0.00 | 92 | 1000.6 |
| 20260508023839 | 48 | 36 | 0.9 | 2.6 | 0.00 | 0.00 | 0.00 | 92 | 1000.7 |
| 20260508023338 | 48 | 331 | 1.7 | 2.6 | 0.00 | 0.00 | 0.00 | 92 | 1000.7 |
| 20260508022837 | 48 | 282 | 0.9 | 2.6 | 0.00 | 0.00 | 0.00 | 92 | 1000.8 |
| 20260508022326 | 48 | 326 | 3.5 | 4.3 | 0.00 | 0.00 | 0.00 | 92 | 1000.6 |
| 20260508021825 | 48 | 302 | 2.6 | 5.2 | 0.00 | 0.00 | 0.00 | 92 | 1000.6 |
| 20260508021325 | 48 | 339 | 3.5 | 4.3 | 0.00 | 0.00 | 0.00 | 92 | 1000.4 |
| 20260508020824 | 48 | 312 | 3.5 | 5.2 | 0.00 | 0.00 | 0.00 | 92 | 1000.4 |
| 20260508020314 | 48 | 339 | 4.3 | 6.1 | 0.00 | 0.00 | 0.00 | 92 | 1000.6 |
| 20260508015813 | 48 | 49 | 0.9 | 4.3 | 0.00 | 0.00 | 0.00 | 92 | 1000.5 |
| 20260508015305 | 48 | 359 | 1.7 | 5.2 | 0.00 | 0.00 | 0.00 | 92 | 1000.6 |
| 20260508014802 | 48 | 354 | 6.1 | 7.0 | 0.00 | 0.00 | 0.00 | 91 | 1000.5 |
| 20260508014251 | 48 | 339 | 4.3 | 5.2 | 0.00 | 0.00 | 0.00 | 91 | 1000.5 |
| 20260508013751 | 48 | 21 | 3.5 | 6.1 | 0.00 | 0.00 | 0.00 | 91 | 1000.4 |
| 20260508013251 | 49 | 332 | 4.3 | 4.3 | 0.00 | 0.00 | 0.00 | 91 | 1000.6 |
| 20260508012740 | 49 | 16 | 3.5 | 5.2 | 0.00 | 0.00 | 0.00 | 91 | 1000.6 |
| 20260508012240 | 49 | 351 | 1.7 | 6.1 | 0.00 | 0.00 | 0.00 | 91 | 1000.4 |
| 20260508011728 | 48 | 1 | 2.6 | 5.2 | 0.00 | 0.00 | 0.00 | 91 | 1000.5 |
| 20260508011228 | 49 | 1 | 3.5 | 6.1 | 0.00 | 0.00 | 0.00 | 91 | 1000.7 |
| 20260508010717 | 48 | 336 | 3.5 | 7.8 | 0.00 | 0.00 | 0.00 | 91 | 1000.4 |
| 20260508010217 | 49 | 302 | 3.5 | 6.1 | 0.00 | 0.00 | 0.00 | 91 | 1000.5 |
| 20260508005717 | 49 | 32 | 2.6 | 5.2 | 0.00 | 0.00 | 0.00 | 91 | 1000.4 |
| 20260508005217 | 49 | 1 | 5.2 | 6.1 | 0.00 | 0.00 | 0.00 | 91 | 1000.6 |
| 20260508004716 | 49 | 0 | 4.3 | 7.8 | 0.00 | 0.00 | 0.00 | 91 | 1000.4 |
| 20260508004216 | 49 | 8 | 4.3 | 5.2 | 0.00 | 0.00 | 0.00 | 91 | 1000.5 |
| 20260508003716 | 49 | 29 | 1.7 | 5.2 | 0.00 | 0.00 | 0.00 | 91 | 1000.6 |
| 20260508003205 | 49 | 17 | 3.5 | 5.2 | 0.00 | 0.00 | 0.00 | 91 | 1000.5 |
| 20260508002704 | 49 | 1 | 2.6 | 5.2 | 0.00 | 0.00 | 0.00 | 91 | 1000.4 |
| 20260508002203 | 49 | 38 | 0.9 | 2.6 | 0.00 | 0.00 | 0.00 | 91 | 1000.5 |
| 20260508001652 | 49 | 353 | 3.5 | 4.3 | 0.00 | 0.00 | 0.00 | 91 | 1000.7 |
| 20260508001152 | 49 | 1 | 1.7 | 4.3 | 0.00 | 0.00 | 0.00 | 91 | 1000.6 |
| 20260508000651 | 49 | 330 | 2.6 | 5.2 | 0.00 | 0.00 | 0.00 | 91 | 1000.5 |
| 20260508000150 | 49 | 352 | 1.7 | 4.3 | 0.00 | 0.00 | 0.00 | 91 | 1000.5 |
| 20260507235649 | 49 | 21 | 2.6 | 4.3 | 0.00 | 0.00 | 0.00 | 91 | 1000.4 |
| 20260507235138 | 49 | 355 | 3.5 | 5.2 | 0.00 | 0.00 | 0.00 | 91 | 1000.5 |
| 20260507234638 | 49 | 358 | 3.5 | 5.2 | 0.00 | 0.00 | 0.00 | 91 | 1000.5 |
| 20260507234138 | 49 | 353 | 2.6 | 2.6 | 0.00 | 0.00 | 0.00 | 91 | 1000.4 |
| 20260507233626 | 49 | 355 | 2.6 | 6.1 | 0.00 | 0.00 | 0.00 | 91 | 1000.6 |
| 20260507233126 | 49 | 314 | 1.7 | 5.2 | 0.00 | 0.00 | 0.00 | 91 | 1000.5 |
| 20260507232625 | 49 | 344 | 5.2 | 6.1 | 0.00 | 0.00 | 0.00 | 91 | 1000.4 |
| 20260507232125 | 49 | 340 | 3.5 | 5.2 | 0.00 | 0.00 | 0.00 | 91 | 1000.6 |
| 20260507231623 | 49 | 327 | 3.5 | 7.0 | 0.00 | 0.00 | 0.00 | 91 | 1000.6 |
| 20260507231123 | 49 | 3 | 3.5 | 5.2 | 0.00 | 0.00 | 0.00 | 91 | 1000.7 |
| 20260507230623 | 49 | 346 | 4.3 | 6.1 | 0.00 | 0.00 | 0.00 | 91 | 1000.4 |
| 20260507230123 | 49 | 11 | 3.5 | 7.8 | 0.00 | 0.00 | 0.00 | 91 | 1000.6 |
| 20260507225622 | 49 | 318 | 2.6 | 6.1 | 0.00 | 0.00 | 0.00 | 91 | 1000.4 |
| 20260507225121 | 49 | 12 | 3.5 | 7.0 | 0.00 | 0.00 | 0.00 | 91 | 1000.5 |
| 20260507224621 | 49 | 353 | 4.3 | 6.1 | 0.00 | 0.00 | 0.00 | 91 | 1000.4 |
| 20260507224120 | 49 | 19 | 2.6 | 6.1 | 0.00 | 0.00 | 0.00 | 91 | 1000.7 |
| 20260507223619 | 49 | 285 | 2.6 | 2.6 | 0.00 | 0.00 | 0.00 | 92 | 1000.7 |
| 20260507223118 | 49 | 50 | 0.9 | 4.3 | 0.00 | 0.00 | 0.00 | 92 | 1000.5 |
| 20260507222618 | 49 | 60 | 1.7 | 5.2 | 0.00 | 0.00 | 0.00 | 91 | 1000.4 |
| 20260507222118 | 49 | 30 | 0.9 | 5.2 | 0.00 | 0.00 | 0.00 | 92 | 1000.5 |
| 20260507221617 | 49 | 341 | 2.6 | 2.6 | 0.00 | 0.00 | 0.00 | 92 | 1000.7 |
| 20260507221117 | 49 | 359 | 2.6 | 4.3 | 0.00 | 0.00 | 0.00 | 92 | 1000.4 |
| 20260507220616 | 49 | 12 | 4.3 | 6.1 | 0.00 | 0.00 | 0.00 | 92 | 1000.5 |
| 20260507220116 | 49 | 26 | 3.5 | 5.2 | 0.00 | 0.00 | 0.00 | 92 | 1000.3 |
| 20260507215615 | 49 | 348 | 2.6 | 5.2 | 0.00 | 0.00 | 0.36 | 91 | 1000.5 |
| 20260507215113 | 49 | 345 | 4.3 | 7.0 | 0.00 | 0.00 | 0.36 | 91 | 1000.5 |
| 20260507214613 | 49 | 28 | 2.6 | 6.1 | 0.00 | 0.00 | 0.36 | 91 | 1000.4 |
| 20260507214113 | 49 | 350 | 7.0 | 7.8 | 0.00 | 0.00 | 0.36 | 91 | 1000.5 |
| 20260507213613 | 49 | 350 | 4.3 | 6.1 | 0.00 | 0.00 | 0.36 | 91 | 1000.5 |
| 20260507213112 | 50 | 347 | 3.5 | 4.3 | 0.00 | 0.00 | 0.36 | 91 | 1000.5 |
| 20260507212611 | 49 | 357 | 2.6 | 4.3 | 0.00 | 0.00 | 0.36 | 92 | 1000.3 |
| 20260507212110 | 49 | 334 | 2.6 | 4.3 | 0.00 | 0.00 | 0.36 | 92 | 1000.3 |
| 20260507211609 | 50 | 13 | 3.5 | 5.2 | 0.00 | 0.00 | 0.36 | 92 | 1000.3 |
| 20260507211108 | 50 | 26 | 2.6 | 2.6 | 0.00 | 0.00 | 0.36 | 92 | 1000.1 |
| 20260507210608 | 50 | 68 | 0.0 | 1.7 | 0.00 | 0.00 | 0.36 | 92 | 1000.2 |
| 20260507210108 | 50 | 47 | 0.9 | 2.6 | 0.00 | 0.00 | 0.36 | 92 | 1000.0 |
| 20260507205607 | 50 | 14 | 2.6 | 2.6 | 0.00 | 0.00 | 0.36 | 92 | 1000.2 |
| 20260507205106 | 50 | 336 | 2.6 | 4.3 | 0.00 | 0.00 | 0.36 | 92 | 1000.2 |
| 20260507204606 | 50 | 9 | 1.7 | 2.6 | 0.00 | 0.00 | 0.36 | 92 | 1000.2 |
| 20260507204106 | 50 | 336 | 2.6 | 5.2 | 0.00 | 0.00 | 0.36 | 92 | 1000.0 |
| 20260507203605 | 50 | 40 | 0.9 | 4.3 | 0.00 | 0.00 | 0.36 | 92 | 1000.0 |
| 20260507203104 | 50 | 336 | 3.5 | 4.3 | 0.00 | 0.00 | 0.36 | 93 | 1000.0 |
| 20260507202604 | 49 | 351 | 3.5 | 5.2 | 0.00 | 0.00 | 0.36 | 93 | 999.9 |
| 20260507202103 | 49 | 16 | 2.6 | 5.2 | 0.00 | 0.00 | 0.36 | 92 | 1000.0 |
| 20260507201603 | 49 | 36 | 3.5 | 6.1 | 0.00 | 0.00 | 0.36 | 92 | 999.9 |
| 20260507201102 | 49 | 22 | 2.6 | 7.0 | 0.00 | 0.00 | 0.36 | 92 | 999.9 |
| 20260507200601 | 49 | 30 | 4.3 | 7.0 | 0.00 | 0.00 | 0.36 | 92 | 999.9 |
| 20260507195601 | 50 | 11 | 2.6 | 5.2 | 0.00 | 0.00 | 0.36 | 91 | 999.9 |
| 20260507195101 | 50 | 14 | 0.9 | 4.3 | 0.00 | 0.00 | 0.36 | 92 | 999.8 |
| 20260507194600 | 50 | 12 | 4.3 | 5.2 | 0.00 | 0.00 | 0.36 | 92 | 999.9 |
| 20260507194059 | 50 | 30 | 3.5 | 6.1 | 0.00 | 0.00 | 0.36 | 91 | 999.6 |
| 20260507193558 | 50 | 339 | 2.6 | 5.2 | 0.00 | 0.00 | 0.36 | 91 | 999.6 |
| 20260507193058 | 50 | 19 | 6.1 | 7.0 | 0.00 | 0.00 | 0.36 | 91 | 999.6 |
| 20260507192558 | 50 | 355 | 4.3 | 7.8 | 0.00 | 0.00 | 0.36 | 91 | 999.6 |
| 20260507192057 | 50 | 9 | 2.6 | 7.8 | 0.00 | 0.00 | 0.36 | 91 | 999.5 |
| 20260507191557 | 50 | 340 | 3.5 | 6.1 | 0.00 | 0.00 | 0.36 | 91 | 999.6 |
| 20260507191056 | 50 | 319 | 3.5 | 4.3 | 0.00 | 0.00 | 0.36 | 91 | 999.3 |
| 20260507190555 | 50 | 4 | 0.9 | 1.7 | 0.00 | 0.00 | 0.36 | 91 | 999.4 |
| 20260507190054 | 50 | 31 | 3.5 | 6.1 | 0.00 | 0.00 | 0.36 | 91 | 999.2 |
| 20260507185554 | 50 | 41 | 3.5 | 4.3 | 0.00 | 0.00 | 0.36 | 91 | 999.1 |
| 20260507185054 | 50 | 0 | 6.1 | 7.8 | 0.00 | 0.00 | 0.36 | 91 | 999.1 |
| 20260507184553 | 50 | 352 | 5.2 | 7.0 | 0.00 | 0.00 | 0.36 | 92 | 999.0 |
| 20260507184052 | 50 | 346 | 7.8 | 8.7 | 0.00 | 0.00 | 0.36 | 91 | 998.8 |
| 20260507183550 | 50 | 343 | 2.6 | 6.1 | 0.00 | 0.00 | 0.36 | 91 | 998.9 |
| 20260507183050 | 50 | 3 | 2.6 | 4.3 | 0.00 | 0.00 | 0.36 | 92 | 998.9 |
| 20260507182550 | 50 | 358 | 2.6 | 6.1 | 0.00 | 0.00 | 0.36 | 91 | 998.7 |
| 20260507182049 | 51 | 346 | 5.2 | 6.1 | 0.00 | 0.00 | 0.36 | 91 | 998.6 |
| 20260507181548 | 50 | 34 | 3.5 | 4.3 | 0.00 | 0.00 | 0.36 | 91 | 998.5 |
| 20260507181047 | 51 | 328 | 4.3 | 6.1 | 0.00 | 0.00 | 0.36 | 91 | 998.4 |
| 20260507180547 | 51 | 56 | 0.9 | 2.6 | 0.00 | 0.00 | 0.36 | 91 | 998.6 |
| 20260507180047 | 50 | 3 | 3.5 | 5.2 | 0.00 | 0.00 | 0.36 | 91 | 998.5 |
| 20260507175546 | 50 | 13 | 2.6 | 4.3 | 0.00 | 0.00 | 0.36 | 91 | 998.5 |
| 20260507175045 | 50 | 10 | 4.3 | 6.1 | 0.00 | 0.00 | 0.36 | 91 | 998.3 |
| 20260507174545 | 50 | 359 | 5.2 | 7.0 | 0.00 | 0.00 | 0.36 | 91 | 998.4 |
| 20260507174044 | 50 | 350 | 4.3 | 7.0 | 0.00 | 0.00 | 0.36 | 91 | 998.0 |
| 20260507173544 | 50 | 349 | 6.1 | 7.8 | 0.00 | 0.00 | 0.36 | 91 | 998.3 |
| 20260507173043 | 50 | 1 | 3.5 | 7.0 | 0.00 | 0.00 | 0.36 | 91 | 998.3 |
| 20260507172543 | 50 | 32 | 7.0 | 8.7 | 0.00 | 0.00 | 0.36 | 91 | 998.4 |
| 20260507172043 | 51 | 6 | 3.5 | 5.2 | 0.00 | 0.00 | 0.36 | 91 | 998.2 |
| 20260507171542 | 50 | 339 | 1.7 | 2.6 | 0.00 | 0.00 | 0.36 | 91 | 998.1 |
| 20260507171042 | 50 | 348 | 7.0 | 8.7 | 0.00 | 0.00 | 0.36 | 91 | 998.1 |
| 20260507170541 | 50 | 349 | 2.6 | 8.7 | 0.00 | 0.00 | 0.36 | 92 | 998.1 |
| 20260507170040 | 50 | 339 | 6.1 | 8.7 | 0.00 | 0.00 | 0.36 | 92 | 998.0 |
| 20260507165540 | 51 | 358 | 7.8 | 8.7 | 0.00 | 0.00 | 0.36 | 91 | 997.9 |
| 20260507165038 | 51 | 3 | 7.0 | 7.8 | 0.00 | 0.00 | 0.36 | 90 | 998.2 |
| 20260507164538 | 51 | 357 | 2.6 | 5.2 | 0.00 | 0.00 | 0.36 | 89 | 998.1 |
| 20260507164037 | 51 | 347 | 2.6 | 6.1 | 0.00 | 0.00 | 0.36 | 89 | 997.9 |
| 20260507163537 | 51 | 29 | 4.3 | 7.8 | 0.00 | 0.00 | 0.36 | 90 | 997.6 |
| 20260507163036 | 51 | 24 | 2.6 | 6.1 | 0.00 | 0.00 | 0.36 | 91 | 997.4 |
| 20260507162536 | 51 | 33 | 5.2 | 12.2 | 0.00 | 0.00 | 0.36 | 91 | 997.4 |
| 20260507162036 | 51 | 326 | 4.3 | 8.7 | 0.00 | 0.00 | 0.36 | 92 | 997.0 |
| 20260507161535 | 51 | 336 | 3.5 | 7.8 | 0.00 | 0.00 | 0.36 | 92 | 997.1 |
| 20260507161033 | 51 | 11 | 9.6 | 11.3 | 0.00 | 0.00 | 0.36 | 92 | 997.0 |
| 20260507160533 | 51 | 38 | 3.5 | 7.8 | 0.00 | 0.00 | 0.36 | 92 | 996.9 |
| 20260507160033 | 51 | 34 | 3.5 | 7.0 | 0.00 | 0.00 | 0.36 | 93 | 997.1 |
| 20260507155522 | 51 | 16 | 6.1 | 8.7 | 0.00 | 0.00 | 0.36 | 93 | 997.0 |
| 20260507155021 | 51 | 7 | 2.6 | 7.0 | 0.00 | 0.00 | 0.36 | 94 | 997.2 |
| 20260507154520 | 50 | 7 | 3.5 | 7.8 | 0.00 | 0.00 | 0.36 | 94 | 997.1 |
| 20260507154019 | 50 | 338 | 7.8 | 8.7 | 0.00 | 0.00 | 0.36 | 95 | 997.2 |
| 20260507153518 | 51 | 25 | 7.0 | 11.3 | 0.00 | 0.00 | 0.36 | 94 | 997.0 |
| 20260507153018 | 51 | 352 | 6.1 | 7.8 | 0.00 | 0.00 | 0.36 | 95 | 997.0 |
| 20260507152518 | 51 | 9 | 6.1 | 8.7 | 0.00 | 0.00 | 0.36 | 94 | 997.0 |
| 20260507152017 | 51 | 7 | 7.8 | 11.3 | 0.00 | 0.00 | 0.36 | 94 | 996.8 |
| 20260507151516 | 51 | 2 | 3.5 | 8.7 | 0.00 | 0.00 | 0.36 | 94 | 996.8 |
| 20260507151016 | 51 | 341 | 7.8 | 11.3 | 0.00 | 0.00 | 0.36 | 94 | 996.9 |
| 20260507150515 | 51 | 352 | 5.2 | 7.8 | 0.00 | 0.00 | 0.36 | 94 | 996.8 |
| 20260507150015 | 51 | 356 | 10.4 | 12.2 | 0.00 | 0.00 | 0.36 | 93 | 996.8 |
| 20260507145514 | 52 | 3 | 5.2 | 7.0 | 0.00 | 0.00 | 0.36 | 94 | 996.8 |
| 20260507145013 | 52 | 19 | 7.8 | 13.0 | 0.00 | 0.00 | 0.36 | 93 | 996.8 |
| 20260507144512 | 52 | 10 | 7.8 | 9.6 | 0.00 | 0.00 | 0.36 | 93 | 996.8 |
| 20260507144012 | 52 | 0 | 6.1 | 9.6 | 0.00 | 0.00 | 0.36 | 93 | 996.7 |
| 20260507143511 | 52 | 329 | 7.0 | 13.0 | 0.00 | 0.00 | 0.36 | 92 | 996.7 |
| 20260507143010 | 52 | 346 | 1.7 | 7.8 | 0.00 | 0.00 | 0.36 | 93 | 996.7 |
| 20260507142509 | 52 | 348 | 6.1 | 8.7 | 0.00 | 0.00 | 0.36 | 92 | 996.7 |
| 20260507142008 | 53 | 354 | 8.7 | 11.3 | 0.00 | 0.00 | 0.36 | 92 | 996.7 |
| 20260507141507 | 53 | 33 | 6.1 | 7.8 | 0.00 | 0.00 | 0.36 | 92 | 996.6 |
| 20260507141007 | 53 | 344 | 7.0 | 11.3 | 0.00 | 0.00 | 0.36 | 92 | 996.8 |
| 20260507140505 | 53 | 348 | 7.8 | 9.6 | 0.00 | 0.00 | 0.36 | 92 | 996.6 |
| 20260507140006 | 53 | 330 | 6.1 | 7.8 | 0.00 | 0.00 | 0.36 | 92 | 996.6 |
| 20260507135504 | 52 | 27 | 5.2 | 9.6 | 0.00 | 0.00 | 0.36 | 93 | 996.7 |
| 20260507135003 | 53 | 351 | 6.1 | 7.8 | 0.00 | 0.00 | 0.36 | 92 | 996.7 |
| 20260507134502 | 53 | 0 | 3.5 | 7.8 | 0.00 | 0.00 | 0.36 | 93 | 996.7 |
| 20260507134001 | 53 | 337 | 4.3 | 7.8 | 0.00 | 0.00 | 0.36 | 93 | 996.8 |
| 20260507133500 | 53 | 359 | 1.7 | 9.6 | 0.00 | 0.00 | 0.36 | 93 | 996.6 |
| 20260507132959 | 53 | 17 | 2.6 | 7.8 | 0.00 | 0.00 | 0.36 | 93 | 996.6 |
| 20260507132459 | 53 | 15 | 3.5 | 7.0 | 0.00 | 0.00 | 0.36 | 93 | 996.6 |
| 20260507131958 | 53 | 359 | 4.3 | 7.0 | 0.00 | 0.00 | 0.36 | 94 | 996.6 |
| 20260507131457 | 53 | 12 | 3.5 | 9.6 | 0.00 | 0.00 | 0.36 | 93 | 996.5 |
| 20260507130956 | 53 | 11 | 7.8 | 9.6 | 0.00 | 0.00 | 0.36 | 92 | 996.4 |
| 20260507130446 | 53 | 356 | 7.0 | 8.7 | 0.00 | 0.00 | 0.36 | 93 | 996.5 |
| 20260507125945 | 53 | 354 | 7.0 | 8.7 | 0.00 | 0.00 | 0.36 | 92 | 996.2 |
| 20260507125434 | 53 | 335 | 4.3 | 7.8 | 0.00 | 0.00 | 0.36 | 92 | 996.5 |
| 20260507124934 | 54 | 58 | 2.6 | 7.0 | 0.00 | 0.00 | 0.36 | 91 | 996.5 |
| 20260507124423 | 54 | 17 | 2.6 | 4.3 | 0.00 | 0.00 | 0.36 | 92 | 996.6 |
| 20260507123923 | 54 | 354 | 5.2 | 6.1 | 0.00 | 0.00 | 0.36 | 92 | 996.5 |
| 20260507123422 | 54 | 340 | 2.6 | 6.1 | 0.00 | 0.00 | 0.36 | 92 | 996.3 |
| 20260507122911 | 53 | 7 | 3.5 | 5.2 | 0.00 | 0.00 | 0.36 | 94 | 996.5 |
| 20260507122411 | 53 | 315 | 3.5 | 5.2 | 0.00 | 0.00 | 0.36 | 94 | 996.3 |
| 20260507121910 | 53 | 307 | 4.3 | 7.0 | 0.00 | 0.00 | 0.36 | 95 | 996.4 |
| 20260507121409 | 53 | 326 | 2.6 | 7.8 | 0.00 | 0.00 | 0.36 | 95 | 996.4 |
| 20260507120858 | 53 | 159 | 3.5 | 7.8 | 0.00 | 0.00 | 0.36 | 95 | 996.3 |
| 20260507120358 | 53 | 358 | 5.2 | 7.8 | 0.00 | 0.00 | 0.36 | 96 | 996.3 |
| 20260507115857 | 52 | 344 | 0.9 | 7.0 | 0.00 | 0.00 | 0.36 | 96 | 996.0 |
| 20260507115346 | 53 | 357 | 6.1 | 8.7 | 0.00 | 0.00 | 0.36 | 96 | 996.2 |
| 20260507114846 | 52 | 348 | 3.5 | 5.2 | 0.00 | 0.00 | 0.36 | 97 | 996.1 |
| 20260507114346 | 53 | 339 | 5.2 | 7.8 | 0.00 | 0.00 | 0.36 | 98 | 996.0 |
| 20260507113845 | 52 | 355 | 3.5 | 7.8 | 0.00 | 0.00 | 0.36 | 98 | 996.1 |
| 20260507113344 | 52 | 29 | 4.3 | 5.2 | 0.00 | 0.00 | 0.36 | 98 | 996.0 |
| 20260507112834 | 52 | 0 | 5.2 | 7.0 | 0.00 | 0.00 | 0.36 | 98 | 995.9 |
| 20260507112334 | 52 | 342 | 2.6 | 7.0 | 0.00 | 0.00 | 0.36 | 98 | 996.2 |
| 20260507111835 | 52 | 337 | 4.3 | 6.1 | 0.00 | 0.00 | 0.36 | 98 | 996.0 |
| 20260507111332 | 52 | 350 | 4.3 | 6.1 | 0.00 | 0.00 | 0.36 | 98 | 995.9 |
| 20260507110832 | 52 | 335 | 3.5 | 6.1 | 0.00 | 0.00 | 0.36 | 98 | 995.9 |
| 20260507110331 | 53 | 327 | 6.1 | 7.0 | 0.00 | 0.00 | 0.36 | 99 | 996.0 |
| 20260507105830 | 52 | 308 | 3.5 | 5.2 | 0.00 | 0.00 | 0.36 | 99 | 995.7 |
| 20260507105329 | 52 | 352 | 2.6 | 7.0 | 0.00 | 0.00 | 0.36 | 99 | 995.8 |
| 20260507104828 | 52 | 349 | 5.2 | 8.7 | 0.00 | 0.00 | 0.36 | 99 | 995.7 |
| 20260507104328 | 52 | 322 | 1.7 | 7.0 | 0.00 | 0.00 | 0.36 | 99 | 995.5 |
| 20260507103827 | 52 | 141 | 0.0 | 5.2 | 0.00 | 0.00 | 0.36 | 99 | 995.5 |
| 20260507103327 | 52 | 308 | 6.1 | 7.8 | 0.00 | 0.00 | 0.36 | 99 | 995.8 |
| 20260507102826 | 52 | 332 | 7.0 | 9.6 | 0.00 | 0.00 | 0.36 | 98 | 995.4 |
| 20260507102326 | 52 | 334 | 6.1 | 7.8 | 0.00 | 0.00 | 0.36 | 98 | 995.7 |
| 20260507101825 | 52 | 326 | 3.5 | 7.0 | 0.00 | 0.00 | 0.36 | 99 | 995.6 |
| 20260507101323 | 53 | 348 | 5.2 | 7.8 | 0.00 | 0.00 | 0.36 | 98 | 995.6 |
| 20260507100823 | 53 | 277 | 3.5 | 7.0 | 0.00 | 0.00 | 0.36 | 99 | 995.4 |
| 20260507100323 | 53 | 328 | 2.6 | 7.0 | 0.00 | 0.00 | 0.36 | 98 | 995.3 |
| 20260507095823 | 53 | 39 | 1.7 | 4.3 | 0.00 | 0.00 | 0.36 | 99 | 995.3 |
| 20260507095322 | 53 | 67 | 1.7 | 7.0 | 0.00 | 0.00 | 0.36 | 99 | 995.3 |
| 20260507094822 | 53 | 50 | 2.6 | 2.6 | 0.00 | 0.00 | 0.36 | 99 | 995.1 |
| 20260507094321 | 53 | 124 | 0.0 | 2.6 | 0.00 | 0.00 | 0.36 | 99 | 994.9 |
| 20260507093821 | 53 | 330 | 7.0 | 9.6 | 0.00 | 0.00 | 0.36 | 98 | 995.0 |
| 20260507093320 | 53 | 300 | 2.6 | 7.0 | 0.00 | 0.00 | 0.36 | 99 | 994.9 |
| 20260507092819 | 53 | 7 | 0.9 | 5.2 | 0.00 | 0.00 | 0.36 | 99 | 995.0 |
| 20260507092319 | 54 | 234 | 5.2 | 7.0 | 0.00 | 0.00 | 0.36 | 99 | 994.8 |
| 20260507091819 | 54 | 303 | 1.7 | 2.6 | 0.00 | 0.00 | 0.36 | 99 | 995.1 |
| 20260507091318 | 54 | 326 | 0.9 | 2.6 | 0.00 | 0.00 | 0.36 | 99 | 994.9 |
| 20260507090817 | 54 | 277 | 2.6 | 5.2 | 0.00 | 0.00 | 0.36 | 99 | 994.7 |
| 20260507090316 | 54 | 313 | 0.9 | 6.1 | 0.00 | 0.00 | 0.36 | 99 | 994.6 |
| 20260507085816 | 54 | 14 | 1.7 | 5.2 | 0.00 | 0.00 | 0.36 | 99 | 994.5 |
| 20260507085315 | 54 | 290 | 0.9 | 1.7 | 0.00 | 0.00 | 0.36 | 99 | 994.4 |
| 20260507084814 | 54 | 333 | 3.5 | 5.2 | 0.00 | 0.00 | 0.36 | 99 | 994.3 |
| 20260507084313 | 54 | 327 | 3.5 | 5.2 | 0.00 | 0.00 | 0.36 | 99 | 994.4 |
| 20260507083813 | 54 | 289 | 0.9 | 1.7 | 0.00 | 0.00 | 0.36 | 99 | 994.3 |
| 20260507083312 | 53 | 349 | 1.7 | 2.6 | 0.00 | 0.00 | 0.36 | 99 | 994.4 |
| 20260507082812 | 54 | 357 | 2.6 | 4.3 | 0.00 | 0.00 | 0.36 | 99 | 994.4 |
| 20260507082312 | 53 | 334 | 3.5 | 5.2 | 0.00 | 0.00 | 0.36 | 99 | 994.2 |
| 20260507081812 | 53 | 88 | 0.0 | 0.9 | 0.00 | 0.00 | 0.36 | 99 | 994.1 |
| 20260507081311 | 53 | 304 | 0.9 | 2.6 | 0.00 | 0.00 | 0.36 | 99 | 994.0 |
| 20260507080810 | 53 | 42 | 2.6 | 2.6 | 0.00 | 0.00 | 0.36 | 99 | 994.1 |
| 20260507080310 | 53 | 25 | 1.7 | 2.6 | 0.00 | 0.00 | 0.36 | 99 | 993.9 |
| 20260507075809 | 53 | 281 | 0.9 | 1.7 | 0.00 | 0.00 | 0.36 | 99 | 994.1 |
| 20260507075308 | 53 | 245 | 0.9 | 4.3 | 0.00 | 0.00 | 0.36 | 99 | 993.8 |
| 20260507074808 | 53 | 303 | 1.7 | 2.6 | 0.00 | 0.00 | 0.36 | 99 | 994.1 |
| 20260507074307 | 53 | 48 | 1.7 | 1.7 | 0.00 | 0.00 | 0.36 | 99 | 993.9 |
| 20260507073806 | 53 | 71 | 0.9 | 2.6 | 0.00 | 0.00 | 0.36 | 99 | 993.8 |
| 20260507073306 | 53 | 358 | 0.9 | 1.7 | 0.00 | 0.00 | 0.36 | 99 | 993.8 |
| 20260507072805 | 53 | 329 | 0.0 | 1.7 | 0.00 | 0.00 | 0.36 | 99 | 994.0 |
| 20260507072307 | 53 | 60 | 0.0 | 2.6 | 0.00 | 0.00 | 0.36 | 99 | 993.9 |
| 20260507071804 | 52 | 110 | 0.0 | 2.6 | 0.00 | 0.00 | 0.36 | 99 | 993.8 |
| 20260507071303 | 53 | 289 | 3.5 | 4.3 | 0.00 | 0.00 | 0.36 | 99 | 993.6 |
| 20260507070802 | 52 | 47 | 0.9 | 1.7 | 0.00 | 0.00 | 0.36 | 99 | 993.4 |
| 20260507070251 | 52 | 47 | 1.7 | 2.6 | 0.00 | 0.00 | 0.36 | 99 | 993.9 |
| 20260507065751 | 53 | 54 | 0.0 | 1.7 | 0.00 | 0.00 | 0.36 | 99 | 993.7 |
| 20260507065250 | 52 | 59 | 0.0 | 1.7 | 0.00 | 0.00 | 0.36 | 99 | 993.5 |
| 20260507064740 | 52 | 4 | 0.9 | 2.6 | 0.00 | 0.00 | 0.36 | 99 | 993.5 |
| 20260507064239 | 52 | 7 | 2.6 | 6.1 | 0.00 | 0.00 | 0.36 | 99 | 993.5 |
| 20260507063739 | 52 | 21 | 2.6 | 5.2 | 0.00 | 0.00 | 0.36 | 99 | 993.2 |
| 20260507063238 | 52 | 40 | 2.6 | 6.1 | 0.00 | 0.00 | 0.36 | 99 | 993.5 |
| 20260507062737 | 52 | 70 | 1.7 | 1.7 | 0.00 | 0.00 | 0.36 | 99 | 993.3 |
| 20260507062237 | 52 | 57 | 2.6 | 7.0 | 0.00 | 0.00 | 0.36 | 99 | 993.4 |
| 20260507061736 | 52 | 49 | 2.6 | 4.3 | 0.00 | 0.00 | 0.36 | 99 | 993.2 |
| 20260507061236 | 52 | 358 | 1.7 | 5.2 | 0.00 | 0.00 | 0.36 | 99 | 993.2 |
| 20260507060736 | 52 | 16 | 5.2 | 6.1 | 0.00 | 0.00 | 0.36 | 99 | 993.3 |
| 20260507060235 | 52 | 359 | 4.3 | 7.8 | 0.00 | 0.00 | 0.36 | 99 | 993.0 |
| 20260507055735 | 52 | 24 | 2.6 | 4.3 | 0.00 | 0.00 | 0.36 | 99 | 993.1 |
| 20260507055235 | 52 | 22 | 1.7 | 2.6 | 0.00 | 0.00 | 0.36 | 99 | 993.0 |
| 20260507054734 | 52 | 54 | 0.0 | 4.3 | 0.00 | 0.00 | 0.36 | 99 | 992.7 |
| 20260507054233 | 52 | 6 | 4.3 | 7.0 | 0.00 | 0.00 | 0.36 | 99 | 992.8 |
| 20260507053733 | 52 | 16 | 3.5 | 7.0 | 0.00 | 0.00 | 0.36 | 99 | 992.7 |
| 20260507053233 | 53 | 24 | 2.6 | 7.0 | 0.00 | 0.00 | 0.36 | 99 | 992.8 |
| 20260507052732 | 53 | 314 | 5.2 | 7.0 | 0.00 | 0.00 | 0.36 | 99 | 992.7 |
| 20260507052232 | 53 | 342 | 2.6 | 7.0 | 0.00 | 0.00 | 0.36 | 99 | 992.5 |
| 20260507051731 | 53 | 15 | 4.3 | 6.1 | 0.00 | 0.00 | 0.36 | 99 | 992.6 |
| 20260507051230 | 53 | 347 | 5.2 | 7.8 | 0.00 | 0.00 | 0.36 | 99 | 992.5 |
| 20260507050729 | 53 | 278 | 1.7 | 1.7 | 0.00 | 0.00 | 0.36 | 99 | 992.5 |
| 20260507050229 | 53 | 359 | 1.7 | 2.6 | 0.00 | 0.00 | 0.36 | 99 | 992.6 |
| 20260507045728 | 53 | 47 | 0.0 | 4.3 | 0.00 | 0.00 | 0.36 | 99 | 992.2 |
| 20260507045228 | 53 | 29 | 2.6 | 4.3 | 0.00 | 0.00 | 0.36 | 99 | 992.2 |
| 20260507044727 | 53 | 299 | 2.6 | 4.3 | 0.00 | 0.00 | 0.36 | 99 | 992.1 |
| 20260507044226 | 53 | 6 | 2.6 | 6.1 | 0.00 | 0.00 | 0.36 | 99 | 992.4 |
| 20260507043726 | 53 | 306 | 0.9 | 2.6 | 0.00 | 0.00 | 0.36 | 99 | 992.3 |
| 20260507043225 | 53 | 353 | 4.3 | 6.1 | 0.00 | 0.00 | 0.36 | 99 | 992.1 |
| 20260507042725 | 53 | 188 | 0.9 | 4.3 | 0.00 | 0.00 | 0.36 | 99 | 992.2 |
| 20260507042225 | 53 | 52 | 0.0 | 0.9 | 0.00 | 0.00 | 0.36 | 99 | 992.2 |
| 20260507041724 | 53 | 260 | 1.7 | 2.6 | 0.00 | 0.00 | 0.36 | 99 | 992.1 |
| 20260507041224 | 53 | 300 | 2.6 | 6.1 | 0.00 | 0.00 | 0.36 | 99 | 992.2 |
| 20260507040723 | 54 | 253 | 4.3 | 7.0 | 0.00 | 0.00 | 0.36 | 99 | 992.0 |
| 20260507040223 | 54 | 339 | 4.3 | 7.0 | 0.00 | 0.00 | 0.36 | 99 | 992.0 |
| 20260507035722 | 54 | 304 | 1.7 | 5.2 | 0.00 | 0.00 | 0.36 | 99 | 991.9 |
| 20260507035210 | 55 | 46 | 2.6 | 7.0 | 0.00 | 0.00 | 0.36 | 99 | 991.8 |